Time,TemperatureF,DewpointF,PressureIn,WindDirection,WindDirectionDegrees,WindSpeedMPH,WindSpeedGustMPH,Humidity,HourlyPrecipIn,Conditions,Clouds,dailyrainin,SoftwareType,DateUTC
2013-01-06 00:00:00,33.7,28.0,30.17,SW,228,3.0,9.0,79,0.00,,OVC OVC///CB,0.00,WUHU216DAVISVP2,2013-01-06 05:00:00,
2013-01-06 00:01:00,33.7,28.0,30.17,SW,215,2.0,9.0,79,0.00,,OVC OVC///CB,0.00,WUHU216DAVISVP2,2013-01-06 05:01:00,
2013-01-06 00:05:00,33.7,28.0,30.16,WSW,238,1.0,8.0,79,0.00,,OVC OVC///CB,0.00,WUHU216DAVISVP2,2013-01-06 05:05:00,
2013-01-06 00:10:00,33.7,28.0,30.16,SW,232,4.0,6.0,79,0.00,,OVC OVC///CB,0.00,WUHU216DAVISVP2,2013-01-06 05:10:00,
2013-01-06 00:15:00,33.7,28.0,30.16,WSW,239,7.0,7.0,79,0.00,,OVC OVC///CB,0.00,WUHU216DAVISVP2,2013-01-06 05:15:00,
2013-01-06 00:20:00,33.7,28.0,30.16,WSW,240,6.0,7.0,79,0.00,,OVC OVC///CB,0.00,WUHU216DAVISVP2,2013-01-06 05:20:00,
2013-01-06 00:25:00,33.7,28.0,30.16,WSW,238,2.0,7.0,79,0.00,,OVC OVC///CB,0.00,WUHU216DAVISVP2,2013-01-06 05:25:00,
2013-01-06 00:30:00,33.8,28.1,30.16,WSW,246,2.0,8.0,79,0.00,,OVC OVC///CB,0.00,WUHU216DAVISVP2,2013-01-06 05:30:00,
2013-01-06 00:35:00,33.7,28.0,30.16,SW,236,4.0,8.0,79,0.00,,OVC OVC///CB,0.00,WUHU216DAVISVP2,2013-01-06 05:35:00,
2013-01-06 00:40:00,33.7,28.3,30.16,WSW,238,1.0,9.0,80,0.00,,OVC OVC///CB,0.00,WUHU216DAVISVP2,2013-01-06 05:40:00,
2013-01-06 00:45:00,33.7,28.3,30.16,SW,235,4.0,9.0,80,0.00,,OVC OVC///CB,0.00,WUHU216DAVISVP2,2013-01-06 05:45:00,
2013-01-06 00:50:00,33.7,28.3,30.15,WSW,245,4.0,8.0,80,0.00,,OVC OVC///CB,0.00,WUHU216DAVISVP2,2013-01-06 05:50:00,
2013-01-06 00:55:00,33.6,28.2,30.15,SSW,208,3.0,8.0,80,0.00,,OVC OVC///CB,0.00,WUHU216DAVISVP2,2013-01-06 05:55:00,
2013-01-06 01:00:00,33.6,28.2,30.15,SW,225,4.0,7.0,80,0.00,,OVC OVC///CB,0.00,WUHU216DAVISVP2,2013-01-06 06:00:00,
2013-01-06 01:05:00,33.6,28.2,30.15,SW,226,2.0,8.0,80,0.00,,OVC OVC///CB,0.00,WUHU216DAVISVP2,2013-01-06 06:05:00,
2013-01-06 01:10:00,33.6,28.2,30.15,WSW,248,2.0,8.0,80,0.00,,OVC OVC///CB,0.00,WUHU216DAVISVP2,2013-01-06 06:10:00,
2013-01-06 01:15:00,33.6,28.2,30.15,WSW,238,3.0,7.0,80,0.00,,OVC OVC///CB,0.00,WUHU216DAVISVP2,2013-01-06 06:15:00,
2013-01-06 01:20:00,33.6,28.2,30.15,WSW,240,2.0,7.0,80,0.00,,OVC OVC///CB,0.00,WUHU216DAVISVP2,2013-01-06 06:20:00,
2013-01-06 01:25:00,33.5,28.1,30.15,SW,235,3.0,7.0,80,0.00,,OVC OVC///CB,0.00,WUHU216DAVISVP2,2013-01-06 06:25:00,
2013-01-06 01:30:00,33.6,28.2,30.15,WSW,249,4.0,7.0,80,0.00,,OVC OVC///CB,0.00,WUHU216DAVISVP2,2013-01-06 06:30:00,
2013-01-06 01:35:00,33.6,28.2,30.14,SW,227,2.0,7.0,80,0.00,,OVC OVC///CB,0.00,WUHU216DAVISVP2,2013-01-06 06:35:00,
2013-01-06 01:40:00,33.5,28.1,30.14,SW,235,3.0,7.0,80,0.00,,OVC OVC///CB,0.00,WUHU216DAVISVP2,2013-01-06 06:40:00,
2013-01-06 01:45:00,33.5,28.1,30.14,SW,225,2.0,6.0,80,0.00,,OVC OVC///CB,0.00,WUHU216DAVISVP2,2013-01-06 06:45:00,
2013-01-06 01:50:00,33.5,28.4,30.14,SW,219,6.0,7.0,81,0.00,,OVC OVC///CB,0.00,WUHU216DAVISVP2,2013-01-06 06:50:00,
2013-01-06 01:55:00,33.5,28.4,30.13,WSW,253,3.0,7.0,81,0.00,,OVC OVC///CB,0.00,WUHU216DAVISVP2,2013-01-06 06:55:00,
2013-01-06 02:00:00,33.5,28.4,30.13,SW,229,4.0,9.0,81,0.00,,OVC OVC///CB,0.00,WUHU216DAVISVP2,2013-01-06 07:00:00,
2013-01-06 02:05:00,33.5,28.4,30.13,SW,226,3.0,9.0,81,0.00,,OVC OVC///CB,0.00,WUHU216DAVISVP2,2013-01-06 07:05:00,
2013-01-06 02:10:00,33.5,28.4,30.13,WSW,240,3.0,9.0,81,0.00,,OVC OVC///CB,0.00,WUHU216DAVISVP2,2013-01-06 07:10:00,
2013-01-06 02:15:00,33.6,28.5,30.13,SW,232,7.0,8.0,81,0.00,,OVC OVC///CB,0.00,WUHU216DAVISVP2,2013-01-06 07:15:00,
2013-01-06 02:20:00,33.5,28.4,30.13,WSW,252,4.0,8.0,81,0.00,,OVC OVC///CB,0.00,WUHU216DAVISVP2,2013-01-06 07:20:00,
2013-01-06 02:25:00,33.6,28.5,30.14,WSW,238,2.0,8.0,81,0.00,,OVC OVC///CB,0.00,WUHU216DAVISVP2,2013-01-06 07:25:00,
2013-01-06 02:30:00,33.6,28.5,30.14,WSW,255,5.0,8.0,81,0.00,,OVC OVC///CB,0.00,WUHU216DAVISVP2,2013-01-06 07:30:00,
2013-01-06 02:35:00,33.6,28.5,30.14,WSW,250,1.0,7.0,81,0.00,,OVC OVC///CB,0.00,WUHU216DAVISVP2,2013-01-06 07:35:00,
2013-01-06 02:40:00,33.5,28.7,30.14,SW,218,5.0,8.0,82,0.00,,OVC OVC///CB,0.00,WUHU216DAVISVP2,2013-01-06 07:40:00,
2013-01-06 02:45:00,33.6,28.8,30.14,SW,228,5.0,8.0,82,0.00,,OVC OVC///CB,0.00,WUHU216DAVISVP2,2013-01-06 07:45:00,
2013-01-06 02:50:00,33.6,28.8,30.13,WSW,239,6.0,12.0,82,0.00,,OVC OVC///CB,0.00,WUHU216DAVISVP2,2013-01-06 07:50:00,
2013-01-06 02:55:00,33.6,28.8,30.13,SW,224,5.0,12.0,82,0.00,,OVC OVC///CB,0.00,WUHU216DAVISVP2,2013-01-06 07:55:00,
2013-01-06 03:00:00,33.5,28.7,30.13,SW,227,3.0,11.0,82,0.00,,OVC OVC///CB,0.00,WUHU216DAVISVP2,2013-01-06 08:00:00,
2013-01-06 03:05:00,33.5,28.7,30.13,WSW,243,2.0,11.0,82,0.00,,OVC OVC///CB,0.00,WUHU216DAVISVP2,2013-01-06 08:05:00,
2013-01-06 03:10:00,33.4,28.6,30.13,SW,219,3.0,10.0,82,0.00,,OVC OVC///CB,0.00,WUHU216DAVISVP2,2013-01-06 08:10:00,
2013-01-06 03:15:00,33.4,28.6,30.12,SW,235,2.0,6.0,82,0.00,,OVC OVC///CB,0.00,WUHU216DAVISVP2,2013-01-06 08:15:00,
2013-01-06 03:20:00,33.3,28.5,30.12,WSW,246,3.0,6.0,82,0.00,,OVC OVC///CB,0.00,WUHU216DAVISVP2,2013-01-06 08:20:00,
2013-01-06 03:25:00,33.2,28.7,30.12,SSW,210,4.0,6.0,83,0.00,,OVC OVC///CB,0.00,WUHU216DAVISVP2,2013-01-06 08:25:00,
2013-01-06 03:30:00,33.2,28.7,30.11,WSW,243,4.0,7.0,83,0.00,,OVC OVC///CB,0.00,WUHU216DAVISVP2,2013-01-06 08:30:00,
2013-01-06 03:35:00,33.1,28.6,30.11,SSW,207,2.0,7.0,83,0.00,,OVC OVC///CB,0.00,WUHU216DAVISVP2,2013-01-06 08:35:00,
2013-01-06 03:40:00,33.0,28.5,30.12,SW,226,5.0,6.0,83,0.00,,OVC OVC///CB,0.00,WUHU216DAVISVP2,2013-01-06 08:40:00,
2013-01-06 03:45:00,33.0,28.5,30.11,SW,232,3.0,7.0,83,0.00,,OVC OVC///CB,0.00,WUHU216DAVISVP2,2013-01-06 08:45:00,
2013-01-06 03:50:00,32.9,28.4,30.11,SW,229,3.0,7.0,83,0.00,,OVC OVC///CB,0.00,WUHU216DAVISVP2,2013-01-06 08:50:00,
2013-01-06 03:55:00,32.9,28.4,30.11,SW,232,2.0,6.0,83,0.00,,OVC OVC///CB,0.00,WUHU216DAVISVP2,2013-01-06 08:55:00,
2013-01-06 04:00:00,32.9,28.4,30.11,SW,222,2.0,7.0,83,0.00,,OVC OVC///CB,0.00,WUHU216DAVISVP2,2013-01-06 09:00:00,
2013-01-06 04:05:00,32.8,28.3,30.11,SW,233,3.0,7.0,83,0.00,,OVC OVC///CB,0.00,WUHU216DAVISVP2,2013-01-06 09:05:00,
2013-01-06 04:10:00,32.8,28.6,30.10,SSW,211,3.0,6.0,84,0.00,,OVC OVC///CB,0.00,WUHU216DAVISVP2,2013-01-06 09:10:00,
2013-01-06 04:15:00,32.8,28.6,30.10,SSW,211,1.0,6.0,84,0.00,,OVC OVC///CB,0.00,WUHU216DAVISVP2,2013-01-06 09:15:00,
2013-01-06 04:20:00,32.8,28.6,30.10,WSW,238,2.0,6.0,84,0.00,,OVC OVC///CB,0.00,WUHU216DAVISVP2,2013-01-06 09:20:00,
2013-01-06 04:25:00,32.8,28.6,30.10,SW,224,4.0,5.0,84,0.00,,OVC OVC///CB,0.00,WUHU216DAVISVP2,2013-01-06 09:25:00,
2013-01-06 04:30:00,32.8,28.6,30.10,WSW,239,2.0,8.0,84,0.00,,OVC OVC///CB,0.00,WUHU216DAVISVP2,2013-01-06 09:30:00,
2013-01-06 04:35:00,32.8,28.6,30.10,SW,224,4.0,8.0,84,0.00,,OVC OVC///CB,0.00,WUHU216DAVISVP2,2013-01-06 09:35:00,
2013-01-06 04:40:00,32.8,28.6,30.10,SW,225,4.0,8.0,84,0.00,,OVC OVC///CB,0.00,WUHU216DAVISVP2,2013-01-06 09:40:00,
2013-01-06 04:45:00,32.8,28.6,30.09,WSW,239,1.0,8.0,84,0.00,,OVC OVC///CB,0.00,WUHU216DAVISVP2,2013-01-06 09:45:00,
2013-01-06 04:50:00,32.8,28.6,30.09,WSW,249,3.0,6.0,84,0.00,,OVC OVC///CB,0.00,WUHU216DAVISVP2,2013-01-06 09:50:00,
2013-01-06 04:55:00,32.8,28.6,30.09,SSW,202,3.0,6.0,84,0.00,,OVC OVC///CB,0.00,WUHU216DAVISVP2,2013-01-06 09:55:00,
2013-01-06 05:00:00,32.7,28.5,30.09,WSW,245,4.0,6.0,84,0.00,,OVC OVC///CB,0.00,WUHU216DAVISVP2,2013-01-06 10:00:00,
2013-01-06 05:05:00,32.7,28.5,30.09,SW,225,2.0,5.0,84,0.00,,OVC OVC///CB,0.00,WUHU216DAVISVP2,2013-01-06 10:05:00,
2013-01-06 05:10:00,32.7,28.5,30.09,SSW,197,0.0,5.0,84,0.00,,OVC OVC///CB,0.00,WUHU216DAVISVP2,2013-01-06 10:10:00,
2013-01-06 05:15:00,32.7,28.5,30.08,SSW,201,2.0,5.0,84,0.00,,OVC OVC///CB,0.00,WUHU216DAVISVP2,2013-01-06 10:15:00,
2013-01-06 05:20:00,32.7,28.5,30.08,SW,214,1.0,5.0,84,0.00,,OVC OVC///CB,0.00,WUHU216DAVISVP2,2013-01-06 10:20:00,
2013-01-06 05:25:00,32.7,28.5,30.08,WSW,238,2.0,5.0,84,0.00,,OVC OVC///CB,0.00,WUHU216DAVISVP2,2013-01-06 10:25:00,
2013-01-06 05:30:00,32.7,28.5,30.08,SW,215,1.0,6.0,84,0.00,,OVC OVC///CB,0.00,WUHU216DAVISVP2,2013-01-06 10:30:00,
2013-01-06 05:35:00,32.7,28.8,30.08,SW,225,4.0,6.0,85,0.00,,OVC OVC///CB,0.00,WUHU216DAVISVP2,2013-01-06 10:35:00,
2013-01-06 05:40:00,32.7,28.8,30.08,WSW,255,1.0,6.0,85,0.00,,OVC OVC///CB,0.00,WUHU216DAVISVP2,2013-01-06 10:40:00,
2013-01-06 05:45:00,32.7,28.8,30.08,SSW,201,2.0,7.0,85,0.00,,OVC OVC///CB,0.00,WUHU216DAVISVP2,2013-01-06 10:45:00,
2013-01-06 05:50:00,32.7,28.8,30.08,SSW,198,2.0,10.0,85,0.00,,OVC OVC///CB,0.00,WUHU216DAVISVP2,2013-01-06 10:50:00,
2013-01-06 05:55:00,32.7,28.8,30.08,WSW,248,2.0,10.0,85,0.00,,OVC OVC///CB,0.00,WUHU216DAVISVP2,2013-01-06 10:55:00,
2013-01-06 06:00:00,32.7,28.8,30.08,SW,228,3.0,9.0,85,0.00,,OVC OVC///CB,0.00,WUHU216DAVISVP2,2013-01-06 11:00:00,
2013-01-06 06:05:00,32.7,28.8,30.08,SW,214,4.0,8.0,85,0.00,,OVC OVC///CB,0.00,WUHU216DAVISVP2,2013-01-06 11:05:00,
2013-01-06 06:10:00,32.7,28.8,30.07,SSW,204,2.0,8.0,85,0.00,,OVC OVC///CB,0.00,WUHU216DAVISVP2,2013-01-06 11:10:00,
2013-01-06 06:15:00,32.8,28.9,30.07,SW,233,3.0,8.0,85,0.00,,OVC OVC///CB,0.00,WUHU216DAVISVP2,2013-01-06 11:15:00,
2013-01-06 06:20:00,32.8,28.9,30.07,SSW,203,2.0,8.0,85,0.00,,OVC OVC///CB,0.00,WUHU216DAVISVP2,2013-01-06 11:20:00,
2013-01-06 06:25:00,32.8,28.9,30.07,SW,225,2.0,8.0,85,0.00,,OVC OVC///CB,0.00,WUHU216DAVISVP2,2013-01-06 11:25:00,
2013-01-06 06:30:00,32.7,28.8,30.07,SW,224,4.0,8.0,85,0.00,,OVC OVC///CB,0.00,WUHU216DAVISVP2,2013-01-06 11:30:00,
2013-01-06 06:35:00,32.7,28.8,30.07,WSW,248,2.0,9.0,85,0.00,,OVC OVC///CB,0.00,WUHU216DAVISVP2,2013-01-06 11:35:00,
2013-01-06 06:40:00,32.8,28.9,30.07,SW,233,6.0,9.0,85,0.00,,OVC OVC///CB,0.00,WUHU216DAVISVP2,2013-01-06 11:40:00,
2013-01-06 06:45:00,32.8,28.9,30.07,WSW,248,5.0,8.0,85,0.00,,OVC OVC///CB,0.00,WUHU216DAVISVP2,2013-01-06 11:45:00,
2013-01-06 06:50:00,32.8,28.9,30.07,SW,222,4.0,8.0,85,0.00,,OVC OVC///CB,0.00,WUHU216DAVISVP2,2013-01-06 11:50:00,
2013-01-06 06:55:00,32.8,28.9,30.07,SSW,207,2.0,7.0,85,0.00,,OVC OVC///CB,0.00,WUHU216DAVISVP2,2013-01-06 11:55:00,
2013-01-06 07:00:00,32.8,28.9,30.07,SSW,205,2.0,7.0,85,0.00,,OVC OVC///CB,0.00,WUHU216DAVISVP2,2013-01-06 12:00:00,
2013-01-06 07:05:00,32.8,28.9,30.07,SW,228,4.0,6.0,85,0.00,,OVC OVC///CB,0.00,WUHU216DAVISVP2,2013-01-06 12:05:00,
2013-01-06 07:10:00,32.8,28.9,30.07,SSW,211,1.0,6.0,85,0.00,,OVC OVC///CB,0.00,WUHU216DAVISVP2,2013-01-06 12:10:00,
2013-01-06 07:15:00,32.8,28.9,30.07,SW,225,4.0,6.0,85,0.00,,OVC OVC///CB,0.00,WUHU216DAVISVP2,2013-01-06 12:15:00,
2013-01-06 07:20:00,32.9,29.0,30.06,SW,232,2.0,8.0,85,0.00,,OVC OVC///CB,0.00,WUHU216DAVISVP2,2013-01-06 12:20:00,
2013-01-06 07:25:00,32.8,29.2,30.06,South,177,3.0,8.0,86,0.00,,OVC OVC///CB,0.00,WUHU216DAVISVP2,2013-01-06 12:25:00,
2013-01-06 07:30:00,32.9,29.0,30.07,SW,217,4.0,8.0,85,0.00,,OVC OVC///CB,0.00,WUHU216DAVISVP2,2013-01-06 12:30:00,
2013-01-06 07:35:00,32.9,29.0,30.07,SW,221,4.0,8.0,85,0.00,,OVC OVC///CB,0.00,WUHU216DAVISVP2,2013-01-06 12:35:00,
2013-01-06 07:40:00,32.9,29.0,30.07,SSW,199,2.0,8.0,85,0.00,,OVC OVC///CB,0.00,WUHU216DAVISVP2,2013-01-06 12:40:00,
2013-01-06 07:45:00,32.9,29.0,30.07,SW,215,2.0,7.0,85,0.00,,OVC OVC///CB,0.00,WUHU216DAVISVP2,2013-01-06 12:45:00,
2013-01-06 07:50:00,33.0,29.1,30.06,SSW,194,5.0,7.0,85,0.00,,OVC OVC///CB,0.00,WUHU216DAVISVP2,2013-01-06 12:50:00,
2013-01-06 07:55:00,33.1,29.2,30.06,SSW,203,2.0,6.0,85,0.00,,OVC OVC///CB,0.00,WUHU216DAVISVP2,2013-01-06 12:55:00,
2013-01-06 08:00:00,33.1,29.4,30.07,SW,235,7.0,8.0,86,0.00,,OVC OVC///CB,0.00,WUHU216DAVISVP2,2013-01-06 13:00:00,
2013-01-06 08:05:00,33.1,29.4,30.06,SW,224,1.0,8.0,86,0.00,,OVC OVC///CB,0.00,WUHU216DAVISVP2,2013-01-06 13:05:00,
2013-01-06 08:10:00,33.1,29.4,30.06,SSW,207,2.0,9.0,86,0.00,,OVC OVC///CB,0.00,WUHU216DAVISVP2,2013-01-06 13:10:00,
2013-01-06 08:15:00,33.0,29.4,30.06,SW,235,5.0,9.0,86,0.00,,OVC OVC///CB,0.00,WUHU216DAVISVP2,2013-01-06 13:15:00,
2013-01-06 08:20:00,33.1,29.4,30.06,South,174,5.0,9.0,86,0.00,,OVC OVC///CB,0.00,WUHU216DAVISVP2,2013-01-06 13:20:00,
2013-01-06 08:25:00,33.1,29.4,30.06,SW,215,2.0,9.0,86,0.00,,OVC OVC///CB,0.00,WUHU216DAVISVP2,2013-01-06 13:25:00,
2013-01-06 08:30:00,33.1,29.4,30.06,SW,231,2.0,10.0,86,0.00,,OVC OVC///CB,0.00,WUHU216DAVISVP2,2013-01-06 13:30:00,
2013-01-06 08:35:00,33.2,29.5,30.06,SSW,198,3.0,10.0,86,0.00,,OVC OVC///CB,0.00,WUHU216DAVISVP2,2013-01-06 13:35:00,
2013-01-06 08:40:00,33.2,29.5,30.06,SW,228,6.0,12.0,86,0.00,,OVC OVC///CB,0.00,WUHU216DAVISVP2,2013-01-06 13:40:00,
2013-01-06 08:45:00,33.3,29.4,30.06,SW,232,5.0,12.0,85,0.00,,OVC OVC///CB,0.00,WUHU216DAVISVP2,2013-01-06 13:45:00,
2013-01-06 08:50:00,33.4,29.5,30.06,SSW,192,3.0,12.0,85,0.00,,OVC OVC///CB,0.00,WUHU216DAVISVP2,2013-01-06 13:50:00,
2013-01-06 08:55:00,33.4,29.5,30.06,SW,218,10.0,11.0,85,0.00,,OVC OVC///CB,0.00,WUHU216DAVISVP2,2013-01-06 13:55:00,
2013-01-06 09:00:00,33.5,29.6,30.07,WSW,242,2.0,11.0,85,0.00,,OVC OVC///CB,0.00,WUHU216DAVISVP2,2013-01-06 14:00:00,
2013-01-06 09:05:00,33.6,29.7,30.06,SW,235,5.0,11.0,85,0.00,,OVC OVC///CB,0.00,WUHU216DAVISVP2,2013-01-06 14:05:00,
2013-01-06 09:10:00,33.7,29.8,30.07,SSW,203,2.0,10.0,85,0.00,,OVC OVC///CB,0.00,WUHU216DAVISVP2,2013-01-06 14:10:00,
2013-01-06 09:15:00,33.7,29.8,30.07,WSW,245,10.0,10.0,85,0.00,,OVC OVC///CB,0.00,WUHU216DAVISVP2,2013-01-06 14:15:00,
2013-01-06 09:20:00,33.7,29.8,30.07,SW,232,6.0,10.0,85,0.00,,OVC OVC///CB,0.00,WUHU216DAVISVP2,2013-01-06 14:20:00,
2013-01-06 09:25:00,33.8,29.9,30.06,WSW,239,6.0,10.0,85,0.00,,OVC OVC///CB,0.00,WUHU216DAVISVP2,2013-01-06 14:25:00,
2013-01-06 09:30:00,33.9,30.0,30.06,SW,236,4.0,10.0,85,0.00,,OVC OVC///CB,0.00,WUHU216DAVISVP2,2013-01-06 14:30:00,
2013-01-06 09:35:00,34.0,29.8,30.06,SW,215,4.0,10.0,84,0.00,,OVC OVC///CB,0.00,WUHU216DAVISVP2,2013-01-06 14:35:00,
2013-01-06 09:40:00,34.1,29.9,30.06,WSW,239,4.0,11.0,84,0.00,,OVC OVC///CB,0.00,WUHU216DAVISVP2,2013-01-06 14:40:00,
2013-01-06 09:45:00,34.1,29.9,30.06,SW,215,5.0,11.0,84,0.00,,OVC OVC///CB,0.00,WUHU216DAVISVP2,2013-01-06 14:45:00,
2013-01-06 09:50:00,34.2,30.0,30.06,SW,218,5.0,13.0,84,0.00,,OVC OVC///CB,0.00,WUHU216DAVISVP2,2013-01-06 14:50:00,
2013-01-06 09:55:00,34.3,30.1,30.06,SW,226,11.0,13.0,84,0.00,,OVC OVC///CB,0.00,WUHU216DAVISVP2,2013-01-06 14:55:00,
2013-01-06 10:00:00,34.3,30.1,30.06,SW,232,3.0,12.0,84,0.00,,OVC OVC///CB,0.00,WUHU216DAVISVP2,2013-01-06 15:00:00,
2013-01-06 10:05:00,34.5,30.3,30.07,SSW,209,4.0,12.0,84,0.00,,OVC OVC///CB,0.00,WUHU216DAVISVP2,2013-01-06 15:05:00,
2013-01-06 10:10:00,34.6,30.4,30.06,SW,222,6.0,11.0,84,0.00,,OVC OVC///CB,0.00,WUHU216DAVISVP2,2013-01-06 15:10:00,
2013-01-06 10:15:00,34.7,30.5,30.06,SSW,205,5.0,11.0,84,0.00,,OVC OVC///CB,0.00,WUHU216DAVISVP2,2013-01-06 15:15:00,
2013-01-06 10:20:00,34.8,30.3,30.07,SW,226,4.0,12.0,83,0.00,,OVC OVC///CB,0.00,WUHU216DAVISVP2,2013-01-06 15:20:00,
2013-01-06 10:25:00,34.9,30.7,30.06,SW,219,2.0,12.0,84,0.00,,OVC OVC///CB,0.00,WUHU216DAVISVP2,2013-01-06 15:25:00,
2013-01-06 10:30:00,35.1,30.9,30.06,SSW,209,2.0,11.0,84,0.00,,OVC OVC///CB,0.00,WUHU216DAVISVP2,2013-01-06 15:30:00,
2013-01-06 10:35:00,35.1,30.6,30.06,WSW,241,3.0,12.0,83,0.00,,OVC OVC///CB,0.00,WUHU216DAVISVP2,2013-01-06 15:35:00,
2013-01-06 10:40:00,35.2,30.7,30.06,WSW,242,10.0,12.0,83,0.00,,OVC OVC///CB,0.00,WUHU216DAVISVP2,2013-01-06 15:40:00,
2013-01-06 10:45:00,35.3,30.8,30.06,WSW,252,4.0,13.0,83,0.00,,OVC OVC///CB,0.00,WUHU216DAVISVP2,2013-01-06 15:45:00,
2013-01-06 10:50:00,35.4,30.9,30.06,WSW,238,7.0,14.0,83,0.00,,OVC OVC///CB,0.00,WUHU216DAVISVP2,2013-01-06 15:50:00,
2013-01-06 10:55:00,35.4,30.9,30.06,WSW,255,9.0,17.0,83,0.00,,OVC OVC///CB,0.00,WUHU216DAVISVP2,2013-01-06 15:55:00,
2013-01-06 11:00:00,35.5,31.0,30.06,SW,228,10.0,17.0,83,0.00,,OVC OVC///CB,0.00,WUHU216DAVISVP2,2013-01-06 16:00:00,
2013-01-06 11:05:00,35.6,31.1,30.06,SW,231,5.0,16.0,83,0.00,,OVC OVC///CB,0.00,WUHU216DAVISVP2,2013-01-06 16:05:00,
2013-01-06 11:10:00,35.8,31.2,30.06,WSW,239,2.0,16.0,83,0.00,,OVC OVC///CB,0.00,WUHU216DAVISVP2,2013-01-06 16:10:00,
2013-01-06 11:15:00,35.8,31.2,30.05,WSW,243,5.0,14.0,83,0.00,,OVC OVC///CB,0.00,WUHU216DAVISVP2,2013-01-06 16:15:00,
2013-01-06 11:20:00,35.9,31.3,30.05,SW,219,7.0,12.0,83,0.00,,OVC OVC///CB,0.00,WUHU216DAVISVP2,2013-01-06 16:20:00,
2013-01-06 11:25:00,35.9,31.1,30.05,WNW,283,6.0,13.0,82,0.00,,OVC OVC///CB,0.00,WUHU216DAVISVP2,2013-01-06 16:25:00,
2013-01-06 11:30:00,35.9,31.1,30.05,SSW,210,2.0,13.0,82,0.00,,OVC OVC///CB,0.00,WUHU216DAVISVP2,2013-01-06 16:30:00,
2013-01-06 11:35:00,36.0,31.2,30.05,SW,230,11.0,13.0,82,0.00,,OVC OVC///CB,0.00,WUHU216DAVISVP2,2013-01-06 16:35:00,
2013-01-06 11:40:00,36.0,31.4,30.05,SW,236,10.0,13.0,83,0.00,,OVC OVC///CB,0.00,WUHU216DAVISVP2,2013-01-06 16:40:00,
2013-01-06 11:45:00,36.0,31.4,30.04,WSW,249,7.0,13.0,83,0.00,,OVC OVC///CB,0.00,WUHU216DAVISVP2,2013-01-06 16:45:00,
2013-01-06 11:50:00,35.9,31.3,30.04,SW,226,8.0,13.0,83,0.00,,OVC OVC///CB,0.00,WUHU216DAVISVP2,2013-01-06 16:50:00,
2013-01-06 11:55:00,35.8,31.2,30.03,SW,228,10.0,12.0,83,0.00,,OVC OVC///CB,0.00,WUHU216DAVISVP2,2013-01-06 16:55:00,
2013-01-06 12:00:00,35.7,31.2,30.03,WSW,248,3.0,12.0,83,0.00,,OVC OVC///CB,0.00,WUHU216DAVISVP2,2013-01-06 17:00:00,
2013-01-06 12:05:00,35.8,31.5,30.03,WSW,240,7.0,12.0,84,0.00,,OVC OVC///CB,0.00,WUHU216DAVISVP2,2013-01-06 17:05:00,
2013-01-06 12:10:00,35.8,31.2,30.03,WSW,240,7.0,12.0,83,0.00,,OVC OVC///CB,0.00,WUHU216DAVISVP2,2013-01-06 17:10:00,
2013-01-06 12:15:00,35.8,31.2,30.02,SW,226,6.0,12.0,83,0.01,,OVC OVC///CB,0.01,WUHU216DAVISVP2,2013-01-06 17:15:00,
2013-01-06 12:20:00,35.8,31.2,30.02,WSW,255,3.0,12.0,83,0.01,,OVC OVC///CB,0.01,WUHU216DAVISVP2,2013-01-06 17:20:00,
2013-01-06 12:25:00,35.9,31.6,30.02,WSW,240,3.0,12.0,84,0.01,,OVC OVC///CB,0.01,WUHU216DAVISVP2,2013-01-06 17:25:00,
2013-01-06 12:30:00,35.9,31.3,30.02,WSW,256,4.0,16.0,83,0.01,,OVC OVC///CB,0.01,WUHU216DAVISVP2,2013-01-06 17:30:00,
2013-01-06 12:35:00,36.0,31.7,30.02,SW,235,6.0,16.0,84,0.01,,OVC OVC///CB,0.01,WUHU216DAVISVP2,2013-01-06 17:35:00,
2013-01-06 12:40:00,36.1,31.8,30.01,WNW,288,4.0,15.0,84,0.01,,OVC OVC///CB,0.01,WUHU216DAVISVP2,2013-01-06 17:40:00,
2013-01-06 12:45:00,36.1,31.5,30.01,WSW,245,6.0,15.0,83,0.01,,OVC OVC///CB,0.01,WUHU216DAVISVP2,2013-01-06 17:45:00,
2013-01-06 12:50:00,36.1,31.5,30.01,WSW,245,9.0,9.0,83,0.01,,OVC OVC///CB,0.01,WUHU216DAVISVP2,2013-01-06 17:50:00,
2013-01-06 12:55:00,36.1,31.5,30.00,West,280,4.0,9.0,83,0.01,,OVC OVC///CB,0.01,WUHU216DAVISVP2,2013-01-06 17:55:00,
2013-01-06 13:00:00,36.1,31.5,30.00,WSW,242,4.0,8.0,83,0.01,,OVC OVC///CB,0.01,WUHU216DAVISVP2,2013-01-06 18:00:00,
2013-01-06 13:05:00,36.2,31.9,30.00,WSW,248,2.0,8.0,84,0.01,,OVC OVC///CB,0.01,WUHU216DAVISVP2,2013-01-06 18:05:00,
2013-01-06 13:10:00,36.2,31.9,30.00,WSW,248,2.0,9.0,84,0.01,,OVC OVC///CB,0.01,WUHU216DAVISVP2,2013-01-06 18:10:00,
2013-01-06 13:15:00,36.1,31.8,30.00,SW,232,2.0,9.0,84,0.00,,OVC OVC///CB,0.01,WUHU216DAVISVP2,2013-01-06 18:15:00,
2013-01-06 13:20:00,36.1,31.8,30.00,SW,220,5.0,10.0,84,0.00,,OVC OVC///CB,0.01,WUHU216DAVISVP2,2013-01-06 18:20:00,
2013-01-06 13:25:00,36.1,31.8,30.00,SW,232,4.0,10.0,84,0.00,,OVC OVC///CB,0.01,WUHU216DAVISVP2,2013-01-06 18:25:00,
2013-01-06 13:30:00,36.1,31.8,30.00,WSW,252,3.0,10.0,84,0.00,,OVC OVC///CB,0.01,WUHU216DAVISVP2,2013-01-06 18:30:00,
2013-01-06 13:35:00,36.1,31.8,30.00,West,266,3.0,9.0,84,0.00,,OVC OVC///CB,0.01,WUHU216DAVISVP2,2013-01-06 18:35:00,
2013-01-06 13:40:00,36.1,31.8,30.00,WSW,256,5.0,9.0,84,0.00,,OVC OVC///CB,0.01,WUHU216DAVISVP2,2013-01-06 18:40:00,
2013-01-06 13:45:00,36.1,32.1,30.00,WSW,243,4.0,11.0,85,0.01,,OVC OVC///CB,0.02,WUHU216DAVISVP2,2013-01-06 18:45:00,
2013-01-06 13:50:00,36.1,32.1,30.00,SSW,205,6.0,11.0,85,0.01,,OVC OVC///CB,0.02,WUHU216DAVISVP2,2013-01-06 18:50:00,
2013-01-06 13:55:00,36.1,32.1,30.00,WSW,248,6.0,10.0,85,0.01,,OVC OVC///CB,0.02,WUHU216DAVISVP2,2013-01-06 18:55:00,
2013-01-06 14:00:00,36.1,32.1,30.01,SW,235,3.0,9.0,85,0.01,,OVC OVC///CB,0.02,WUHU216DAVISVP2,2013-01-06 19:00:00,
2013-01-06 14:05:00,36.1,32.1,30.01,WSW,255,6.0,9.0,85,0.01,,OVC OVC///CB,0.02,WUHU216DAVISVP2,2013-01-06 19:05:00,
2013-01-06 14:10:00,36.1,32.1,30.01,SSW,194,2.0,9.0,85,0.01,,OVC OVC///CB,0.02,WUHU216DAVISVP2,2013-01-06 19:10:00,
2013-01-06 14:15:00,36.1,32.1,30.01,West,259,2.0,9.0,85,0.01,,OVC OVC///CB,0.02,WUHU216DAVISVP2,2013-01-06 19:15:00,
2013-01-06 14:20:00,36.1,32.1,30.01,SW,226,14.0,14.0,85,0.01,,OVC OVC///CB,0.02,WUHU216DAVISVP2,2013-01-06 19:20:00,
2013-01-06 14:25:00,36.1,32.1,30.01,WSW,242,2.0,17.0,85,0.01,,OVC OVC///CB,0.02,WUHU216DAVISVP2,2013-01-06 19:25:00,
2013-01-06 14:30:00,36.0,32.3,30.01,SW,224,4.0,17.0,86,0.01,,OVC OVC///CB,0.02,WUHU216DAVISVP2,2013-01-06 19:30:00,
2013-01-06 14:35:00,36.0,32.3,30.02,West,266,3.0,16.0,86,0.01,,OVC OVC///CB,0.02,WUHU216DAVISVP2,2013-01-06 19:35:00,
2013-01-06 14:40:00,36.0,32.3,30.02,WNW,283,4.0,11.0,86,0.01,,OVC OVC///CB,0.02,WUHU216DAVISVP2,2013-01-06 19:40:00,
2013-01-06 14:45:00,36.0,32.3,30.02,WSW,243,4.0,11.0,86,0.01,,OVC OVC///CB,0.02,WUHU216DAVISVP2,2013-01-06 19:45:00,
2013-01-06 14:51:00,35.9,32.2,30.02,WSW,238,5.0,10.0,86,0.00,,OVC OVC///CB,0.02,WUHU216DAVISVP2,2013-01-06 19:51:00,
2013-01-06 14:56:00,35.9,32.2,30.02,WSW,239,4.0,9.0,86,0.00,,OVC OVC///CB,0.02,WUHU216DAVISVP2,2013-01-06 19:56:00,
2013-01-06 15:01:00,35.9,32.2,30.02,SW,226,2.0,9.0,86,0.00,,OVC OVC///CB,0.02,WUHU216DAVISVP2,2013-01-06 20:01:00,
2013-01-06 15:06:00,35.9,32.2,30.02,SSW,203,1.0,9.0,86,0.00,,OVC OVC///CB,0.02,WUHU216DAVISVP2,2013-01-06 20:06:00,
2013-01-06 15:12:00,35.9,32.2,30.03,SW,223,2.0,10.0,86,0.00,,OVC OVC///CB,0.02,WUHU216DAVISVP2,2013-01-06 20:12:00,
2013-01-06 15:13:00,35.9,32.2,30.03,SW,226,2.0,10.0,86,0.00,,OVC OVC///CB,0.02,WUHU216DAVISVP2,2013-01-06 20:13:00,
2013-01-06 15:18:00,35.8,32.4,30.03,WSW,252,4.0,10.0,87,0.00,,OVC OVC///CB,0.02,WUHU216DAVISVP2,2013-01-06 20:18:00,
2013-01-06 15:23:00,35.8,32.4,30.03,SW,226,2.0,10.0,87,0.00,,OVC OVC///CB,0.02,WUHU216DAVISVP2,2013-01-06 20:23:00,
2013-01-06 15:28:00,35.8,32.4,30.03,SSW,205,2.0,10.0,87,0.00,,OVC OVC///CB,0.02,WUHU216DAVISVP2,2013-01-06 20:28:00,
2013-01-06 15:33:00,35.7,32.6,30.03,WSW,246,3.0,10.0,88,0.00,,OVC OVC///CB,0.02,WUHU216DAVISVP2,2013-01-06 20:33:00,
2013-01-06 15:38:00,35.6,32.5,30.04,SW,219,4.0,9.0,88,0.00,,OVC OVC///CB,0.02,WUHU216DAVISVP2,2013-01-06 20:38:00,
2013-01-06 15:43:00,35.5,32.6,30.04,SW,235,2.0,9.0,89,0.00,,OVC OVC///CB,0.02,WUHU216DAVISVP2,2013-01-06 20:43:00,
2013-01-06 15:48:00,35.4,32.5,30.04,SW,231,4.0,12.0,89,0.00,,OVC OVC///CB,0.02,WUHU216DAVISVP2,2013-01-06 20:48:00,
2013-01-06 15:53:00,35.3,32.7,30.04,SW,224,3.0,12.0,90,0.00,,OVC OVC///CB,0.02,WUHU216DAVISVP2,2013-01-06 20:53:00,
2013-01-06 15:58:00,35.3,32.7,30.04,WSW,242,3.0,11.0,90,0.01,,OVC OVC///CB,0.03,WUHU216DAVISVP2,2013-01-06 20:58:00,
2013-01-06 16:01:00,35.3,32.7,30.04,SW,235,6.0,11.0,90,0.01,,OVC OVC///CB,0.03,WUHU216DAVISVP2,2013-01-06 21:01:00,
2013-01-06 16:06:00,35.2,32.9,30.05,WSW,248,6.0,10.0,91,0.01,,OVC OVC///CB,0.03,WUHU216DAVISVP2,2013-01-06 21:06:00,
2013-01-06 16:11:00,35.2,32.9,30.05,WSW,243,3.0,10.0,91,0.01,,OVC OVC///CB,0.03,WUHU216DAVISVP2,2013-01-06 21:11:00,
2013-01-06 16:16:00,35.1,32.8,30.05,SW,221,3.0,11.0,91,0.01,,OVC OVC///CB,0.03,WUHU216DAVISVP2,2013-01-06 21:16:00,
2013-01-06 16:21:00,35.0,33.0,30.05,SW,224,6.0,11.0,92,0.01,,OVC OVC///CB,0.03,WUHU216DAVISVP2,2013-01-06 21:21:00,
2013-01-06 16:26:00,34.9,32.9,30.05,WSW,238,3.0,10.0,92,0.01,,OVC OVC///CB,0.03,WUHU216DAVISVP2,2013-01-06 21:26:00,
2013-01-06 16:31:00,34.8,33.0,30.05,SSW,208,2.0,10.0,93,0.01,,OVC OVC///CB,0.03,WUHU216DAVISVP2,2013-01-06 21:31:00,
2013-01-06 16:36:00,34.7,32.9,30.06,SW,218,1.0,9.0,93,0.01,,OVC OVC///CB,0.03,WUHU216DAVISVP2,2013-01-06 21:36:00,
2013-01-06 16:41:00,34.7,33.2,30.06,SW,230,1.0,9.0,94,0.01,,OVC OVC///CB,0.03,WUHU216DAVISVP2,2013-01-06 21:41:00,
2013-01-06 16:46:00,34.5,33.0,30.06,SW,225,1.0,10.0,94,0.01,,OVC OVC///CB,0.03,WUHU216DAVISVP2,2013-01-06 21:46:00,
2013-01-06 16:51:00,34.5,33.0,30.06,WSW,243,2.0,10.0,94,0.01,,OVC OVC///CB,0.03,WUHU216DAVISVP2,2013-01-06 21:51:00,
2013-01-06 16:56:00,34.5,33.0,30.07,SW,235,6.0,12.0,94,0.01,,OVC OVC///CB,0.03,WUHU216DAVISVP2,2013-01-06 21:56:00,
2013-01-06 17:01:00,34.4,32.9,30.07,WSW,250,4.0,12.0,94,0.00,,OVC OVC///CB,0.03,WUHU216DAVISVP2,2013-01-06 22:01:00,
2013-01-06 17:06:00,34.4,33.2,30.07,SW,226,1.0,11.0,95,0.00,,OVC OVC///CB,0.03,WUHU216DAVISVP2,2013-01-06 22:06:00,
2013-01-06 17:11:00,34.3,33.1,30.07,WSW,240,3.0,11.0,95,0.00,,OVC OVC///CB,0.03,WUHU216DAVISVP2,2013-01-06 22:11:00,
2013-01-06 17:16:00,34.2,33.2,30.07,WSW,248,5.0,9.0,96,0.00,,OVC OVC///CB,0.03,WUHU216DAVISVP2,2013-01-06 22:16:00,
2013-01-06 17:21:00,34.2,33.2,30.07,WSW,243,1.0,9.0,96,0.00,,OVC OVC///CB,0.03,WUHU216DAVISVP2,2013-01-06 22:21:00,
2013-01-06 17:26:00,34.1,33.1,30.08,WSW,253,1.0,8.0,96,0.00,,OVC OVC///CB,0.03,WUHU216DAVISVP2,2013-01-06 22:26:00,
2013-01-06 17:31:00,34.1,33.1,30.08,SW,235,7.0,8.0,96,0.00,,OVC OVC///CB,0.03,WUHU216DAVISVP2,2013-01-06 22:31:00,
2013-01-06 17:36:00,34.1,33.1,30.08,West,276,2.0,8.0,96,0.00,,OVC OVC///CB,0.03,WUHU216DAVISVP2,2013-01-06 22:36:00,
2013-01-06 17:41:00,34.2,33.2,30.08,WSW,243,5.0,8.0,96,0.00,,OVC OVC///CB,0.03,WUHU216DAVISVP2,2013-01-06 22:41:00,
2013-01-06 17:46:00,34.2,33.2,30.08,West,262,3.0,8.0,96,0.00,,OVC OVC///CB,0.03,WUHU216DAVISVP2,2013-01-06 22:46:00,
2013-01-06 17:51:00,34.1,33.1,30.08,WSW,253,5.0,8.0,96,0.00,,OVC OVC///CB,0.03,WUHU216DAVISVP2,2013-01-06 22:51:00,
2013-01-06 17:56:00,34.1,33.1,30.09,West,266,2.0,8.0,96,0.00,,OVC OVC///CB,0.03,WUHU216DAVISVP2,2013-01-06 22:56:00,
2013-01-06 18:01:00,34.1,33.1,30.09,WNW,291,1.0,8.0,96,0.00,,OVC OVC///CB,0.03,WUHU216DAVISVP2,2013-01-06 23:01:00,
2013-01-06 18:06:00,34.1,33.1,30.09,SW,236,3.0,8.0,96,0.00,,OVC OVC///CB,0.03,WUHU216DAVISVP2,2013-01-06 23:06:00,
2013-01-06 18:11:00,34.1,33.1,30.09,SW,228,6.0,7.0,96,0.00,,OVC OVC///CB,0.03,WUHU216DAVISVP2,2013-01-06 23:11:00,
2013-01-06 18:16:00,34.2,33.0,30.10,WNW,285,5.0,7.0,95,0.00,,OVC OVC///CB,0.03,WUHU216DAVISVP2,2013-01-06 23:16:00,
2013-01-06 18:21:00,34.2,33.0,30.10,West,277,3.0,7.0,95,0.00,,OVC OVC///CB,0.03,WUHU216DAVISVP2,2013-01-06 23:21:00,
2013-01-06 18:26:00,34.2,33.0,30.10,WNW,290,2.0,8.0,95,0.00,,OVC OVC///CB,0.03,WUHU216DAVISVP2,2013-01-06 23:26:00,
2013-01-06 18:31:00,34.3,33.1,30.10,WNW,283,1.0,8.0,95,0.00,,OVC OVC///CB,0.03,WUHU216DAVISVP2,2013-01-06 23:31:00,
2013-01-06 18:36:00,34.3,33.1,30.11,NW,304,3.0,8.0,95,0.00,,OVC OVC///CB,0.03,WUHU216DAVISVP2,2013-01-06 23:36:00,
2013-01-06 18:41:00,34.2,32.7,30.11,WNW,302,3.0,12.0,94,0.00,,OVC OVC///CB,0.03,WUHU216DAVISVP2,2013-01-06 23:41:00,
2013-01-06 18:46:00,34.2,32.7,30.12,WNW,285,7.0,12.0,94,0.00,,OVC OVC///CB,0.03,WUHU216DAVISVP2,2013-01-06 23:46:00,
2013-01-06 18:51:00,34.0,32.5,30.12,NW,315,7.0,13.0,94,0.00,,OVC OVC///CB,0.03,WUHU216DAVISVP2,2013-01-06 23:51:00,
2013-01-06 18:56:00,33.8,32.6,30.13,West,276,11.0,13.0,95,0.00,,OVC OVC///CB,0.03,WUHU216DAVISVP2,2013-01-06 23:56:00,
2013-01-06 19:01:00,33.2,31.7,30.13,WNW,297,4.0,13.0,94,0.00,,OVC OVC///CB,0.03,WUHU216DAVISVP2,2013-01-07 00:01:00,
2013-01-06 19:06:00,32.9,31.4,30.13,West,269,6.0,13.0,94,0.00,,OVC OVC///CB,0.03,WUHU216DAVISVP2,2013-01-07 00:06:00,
2013-01-06 19:11:00,32.8,30.8,30.14,SW,235,4.0,13.0,92,0.00,,OVC OVC///CB,0.03,WUHU216DAVISVP2,2013-01-07 00:11:00,
2013-01-06 19:16:00,32.8,30.8,30.14,WNW,283,6.0,14.0,92,0.00,,OVC OVC///CB,0.03,WUHU216DAVISVP2,2013-01-07 00:16:00,
2013-01-06 19:21:00,32.8,30.5,30.14,NW,312,6.0,14.0,91,0.00,,OVC OVC///CB,0.03,WUHU216DAVISVP2,2013-01-07 00:21:00,
2013-01-06 19:26:00,32.9,30.4,30.14,WNW,296,3.0,14.0,90,0.00,,OVC OVC///CB,0.03,WUHU216DAVISVP2,2013-01-07 00:26:00,
2013-01-06 19:31:00,32.9,30.4,30.14,West,273,4.0,13.0,90,0.00,,OVC OVC///CB,0.03,WUHU216DAVISVP2,2013-01-07 00:31:00,
2013-01-06 19:36:00,32.9,30.1,30.14,WNW,293,4.0,13.0,89,0.00,,OVC OVC///CB,0.03,WUHU216DAVISVP2,2013-01-07 00:36:00,
2013-01-06 19:41:00,32.8,30.0,30.14,NW,309,5.0,12.0,89,0.00,,OVC OVC///CB,0.03,WUHU216DAVISVP2,2013-01-07 00:41:00,
2013-01-06 19:46:00,32.8,30.0,30.15,WNW,293,7.0,12.0,89,0.00,,OVC OVC///CB,0.03,WUHU216DAVISVP2,2013-01-07 00:46:00,
2013-01-06 19:51:00,32.8,30.0,30.15,WNW,295,5.0,15.0,89,0.00,,OVC OVC///CB,0.03,WUHU216DAVISVP2,2013-01-07 00:51:00,
2013-01-06 19:56:00,32.7,29.9,30.15,WNW,293,4.0,15.0,89,0.00,,OVC OVC///CB,0.03,WUHU216DAVISVP2,2013-01-07 00:56:00,
2013-01-06 20:01:00,32.6,29.8,30.15,North,349,8.0,15.0,89,0.00,,OVC OVC///CB,0.03,WUHU216DAVISVP2,2013-01-07 01:01:00,
2013-01-06 20:06:00,32.4,29.3,30.15,WNW,291,6.0,12.0,88,0.00,,OVC OVC///CB,0.03,WUHU216DAVISVP2,2013-01-07 01:06:00,
2013-01-06 20:11:00,32.2,29.1,30.16,WNW,300,7.0,12.0,88,0.00,,OVC OVC///CB,0.03,WUHU216DAVISVP2,2013-01-07 01:11:00,
2013-01-06 20:16:00,32.0,28.9,30.16,West,264,4.0,14.0,88,0.00,,OVC OVC///CB,0.03,WUHU216DAVISVP2,2013-01-07 01:16:00,
2013-01-06 20:21:00,31.9,29.1,30.17,WSW,248,8.0,14.0,89,0.00,,OVC OVC///CB,0.03,WUHU216DAVISVP2,2013-01-07 01:21:00,
2013-01-06 20:26:00,31.7,28.9,30.17,WNW,298,8.0,14.0,89,0.00,,OVC OVC///CB,0.03,WUHU216DAVISVP2,2013-01-07 01:26:00,
2013-01-06 20:31:00,31.6,28.8,30.18,West,268,11.0,14.0,89,0.00,,OVC OVC///CB,0.03,WUHU216DAVISVP2,2013-01-07 01:31:00,
2013-01-06 20:36:00,31.5,28.7,30.18,WNW,290,3.0,13.0,89,0.00,,OVC OVC///CB,0.03,WUHU216DAVISVP2,2013-01-07 01:36:00,
2013-01-06 20:41:00,31.4,28.6,30.18,WSW,250,3.0,13.0,89,0.00,,OVC OVC///CB,0.03,WUHU216DAVISVP2,2013-01-07 01:41:00,
2013-01-06 20:46:00,31.3,28.5,30.18,West,274,5.0,13.0,89,0.00,,OVC OVC///CB,0.03,WUHU216DAVISVP2,2013-01-07 01:46:00,
2013-01-06 20:51:00,31.2,28.4,30.19,WNW,287,2.0,13.0,89,0.00,,OVC OVC///CB,0.03,WUHU216DAVISVP2,2013-01-07 01:51:00,
2013-01-06 20:56:00,31.2,28.4,30.19,WNW,285,7.0,13.0,89,0.00,,OVC OVC///CB,0.03,WUHU216DAVISVP2,2013-01-07 01:56:00,
2013-01-06 21:01:00,31.1,28.3,30.19,WNW,293,5.0,12.0,89,0.00,,OVC OVC///CB,0.03,WUHU216DAVISVP2,2013-01-07 02:01:00,
2013-01-06 21:06:00,31.0,28.5,30.19,WNW,288,2.0,11.0,90,0.00,,OVC OVC///CB,0.03,WUHU216DAVISVP2,2013-01-07 02:06:00,
2013-01-06 21:11:00,31.0,28.5,30.19,WNW,288,6.0,9.0,90,0.00,,OVC OVC///CB,0.03,WUHU216DAVISVP2,2013-01-07 02:11:00,
2013-01-06 21:16:00,30.9,28.4,30.19,WNW,298,2.0,9.0,90,0.00,,OVC OVC///CB,0.03,WUHU216DAVISVP2,2013-01-07 02:16:00,
2013-01-06 21:21:00,30.9,28.4,30.20,West,276,5.0,7.0,90,0.00,,OVC OVC///CB,0.03,WUHU216DAVISVP2,2013-01-07 02:21:00,
2013-01-06 21:26:00,30.9,28.4,30.20,WNW,287,2.0,8.0,90,0.00,,OVC OVC///CB,0.03,WUHU216DAVISVP2,2013-01-07 02:26:00,
2013-01-06 21:31:00,30.8,28.3,30.20,WNW,291,3.0,11.0,90,0.00,,OVC OVC///CB,0.03,WUHU216DAVISVP2,2013-01-07 02:31:00,
2013-01-06 21:36:00,30.7,28.2,30.21,WNW,288,7.0,11.0,90,0.00,,OVC OVC///CB,0.03,WUHU216DAVISVP2,2013-01-07 02:36:00,
2013-01-06 21:41:00,30.6,28.1,30.21,WNW,288,6.0,12.0,90,0.00,,OVC OVC///CB,0.03,WUHU216DAVISVP2,2013-01-07 02:41:00,
2013-01-06 21:46:00,30.6,28.1,30.21,West,280,2.0,12.0,90,0.00,,OVC OVC///CB,0.03,WUHU216DAVISVP2,2013-01-07 02:46:00,
2013-01-06 21:51:00,30.6,28.1,30.22,West,281,3.0,12.0,90,0.00,,OVC OVC///CB,0.03,WUHU216DAVISVP2,2013-01-07 02:51:00,
2013-01-06 21:56:00,30.5,28.0,30.22,WNW,294,5.0,12.0,90,0.00,,OVC OVC///CB,0.03,WUHU216DAVISVP2,2013-01-07 02:56:00,
2013-01-06 22:01:00,30.5,28.0,30.22,WNW,298,4.0,11.0,90,0.00,,OVC OVC///CB,0.03,WUHU216DAVISVP2,2013-01-07 03:01:00,
2013-01-06 22:06:00,30.4,27.9,30.22,NNW,332,4.0,11.0,90,0.00,,OVC OVC///CB,0.03,WUHU216DAVISVP2,2013-01-07 03:06:00,
2013-01-06 22:11:00,30.4,27.9,30.22,NW,308,1.0,11.0,90,0.00,,OVC OVC///CB,0.03,WUHU216DAVISVP2,2013-01-07 03:11:00,
2013-01-06 22:16:00,30.3,27.8,30.22,WNW,294,5.0,10.0,90,0.00,,OVC OVC///CB,0.03,WUHU216DAVISVP2,2013-01-07 03:16:00,
2013-01-06 22:21:00,30.2,27.7,30.22,NW,323,5.0,11.0,90,0.00,,OVC OVC///CB,0.03,WUHU216DAVISVP2,2013-01-07 03:21:00,
2013-01-06 22:26:00,30.1,27.6,30.22,West,266,2.0,11.0,90,0.00,,OVC OVC///CB,0.03,WUHU216DAVISVP2,2013-01-07 03:26:00,
2013-01-06 22:31:00,30.0,27.5,30.23,West,276,9.0,11.0,90,0.00,,OVC OVC///CB,0.03,WUHU216DAVISVP2,2013-01-07 03:31:00,
2013-01-06 22:36:00,30.0,27.5,30.23,WNW,285,1.0,11.0,90,0.00,,OVC OVC///CB,0.03,WUHU216DAVISVP2,2013-01-07 03:36:00,
2013-01-06 22:41:00,29.9,27.4,30.24,West,277,4.0,11.0,90,0.00,,OVC OVC///CB,0.03,WUHU216DAVISVP2,2013-01-07 03:41:00,
2013-01-06 22:46:00,29.8,27.3,30.24,WNW,288,3.0,10.0,90,0.00,,OVC OVC///CB,0.03,WUHU216DAVISVP2,2013-01-07 03:46:00,
2013-01-06 22:51:00,29.8,27.3,30.24,WSW,250,0.0,10.0,90,0.00,,OVC OVC///CB,0.03,WUHU216DAVISVP2,2013-01-07 03:51:00,
2013-01-06 22:56:00,29.8,27.6,30.24,West,278,3.0,10.0,91,0.00,,OVC OVC///CB,0.03,WUHU216DAVISVP2,2013-01-07 03:56:00,
2013-01-06 23:01:00,29.8,27.6,30.24,NW,305,1.0,8.0,91,0.00,,OVC OVC///CB,0.03,WUHU216DAVISVP2,2013-01-07 04:01:00,
2013-01-06 23:06:00,29.7,27.2,30.24,WNW,285,4.0,8.0,90,0.00,,OVC OVC///CB,0.03,WUHU216DAVISVP2,2013-01-07 04:06:00,
2013-01-06 23:11:00,29.7,27.5,30.25,WNW,301,5.0,8.0,91,0.00,,OVC OVC///CB,0.03,WUHU216DAVISVP2,2013-01-07 04:11:00,
2013-01-06 23:16:00,29.7,27.5,30.25,WSW,249,4.0,8.0,91,0.00,,OVC OVC///CB,0.03,WUHU216DAVISVP2,2013-01-07 04:16:00,
2013-01-06 23:21:00,29.6,27.1,30.26,WSW,256,2.0,9.0,90,0.00,,OVC OVC///CB,0.03,WUHU216DAVISVP2,2013-01-07 04:21:00,
2013-01-06 23:26:00,29.6,27.1,30.26,WNW,295,5.0,9.0,90,0.00,,OVC OVC///CB,0.03,WUHU216DAVISVP2,2013-01-07 04:26:00,
2013-01-06 23:31:00,29.5,27.0,30.26,WNW,288,8.0,10.0,90,0.00,,OVC OVC///CB,0.03,WUHU216DAVISVP2,2013-01-07 04:31:00,
2013-01-06 23:36:00,29.5,27.0,30.27,WSW,240,5.0,10.0,90,0.00,,OVC OVC///CB,0.03,WUHU216DAVISVP2,2013-01-07 04:36:00,
2013-01-06 23:41:00,29.4,27.2,30.27,WSW,256,3.0,10.0,91,0.00,,OVC OVC///CB,0.03,WUHU216DAVISVP2,2013-01-07 04:41:00,
2013-01-06 23:46:00,29.4,27.2,30.27,WSW,243,4.0,10.0,91,0.00,,OVC OVC///CB,0.03,WUHU216DAVISVP2,2013-01-07 04:46:00,
2013-01-06 23:51:00,29.3,26.8,30.28,WSW,252,2.0,13.0,90,0.00,,OVC OVC///CB,0.03,WUHU216DAVISVP2,2013-01-07 04:51:00,
2013-01-06 23:56:00,29.2,27.0,30.28,WNW,284,5.0,13.0,91,0.00,,OVC OVC///CB,0.03,WUHU216DAVISVP2,2013-01-07 04:56:00,